Find Starlink 36394

NORAD ID: 67566 Int'l Des: 2026-016 Owner: SPXS Country: US Constellation: starlink operational
LEOCIRCULARRETROGRADE

現在のビュー

3D地球を読み込み中...

Starlink 36394について

説明を読み込み中...

次回通過

Passes for default location (London). Set your location on the main map for personalized predictions.

高度履歴

Loading altitude history...

軌道要素

1 67566U 26016F 26146.41062207 .00033150 00000-0 10250-2 0 9998
2 67566 97.2844 206.7009 0000370 24.3784 335.7476 15.33433253 18778
Epoch: May 26, 2026 • Age: 10 hours

現在のステータス

高度 478.0 km
速度 7.63 km/s
衛星直下点 73.75°N, 3.18°E
打ち上げ日 Jan 25, 2026
運用期間 0.3 years
タイプ internet

技術仕様

分類 Payload
質量 575.00 kg
乾燥質量 530.00 kg
総質量 575.00 kg
長さ 0.30 m
直径 4.10 m
スパン 29.00 m
形状 Box + pan
製造者 SPXS
バスタイプ Starlink V2MO
フェーズステータス In Orbit
所有者/国 SPXS/US

Most Searched